Theta_e
341 340 343 345 347 348 348 349 352 353 351 350 350 351 351 347 350 349 348 345 346 344
345 339 342 346 346 348 348 348 349 353 350 349 349 349 350 349 349 349 349 347 344 346
344 345 339 344 346 346 347 346 347 353 352 350 350 352 349 348 349 349 347 349 347 345
341 346 341 342 344 349 345 346 348 350 353 352 351 349 350 348 348 348 345 346 347 347
340 343 346 345 342 348 347 351 351 350 354 352 352 351 350 348 349 348 347 347 347 347
339 340 344 347 345 341 348 348 353 352 352 353 352 351 352 351 349 348 349 349 348 348
344 340 340 346 344 344 343 346 349 353 352 352 353 352 352 351 349 349 349 351 350 351
347 346 340 340 345 343 343 346 349 351 353 353 353 353 351 351 350 348 348 349 351 352
347 348 346 341 341 342 343 347 348 350 352 351 355 341 340 348 350 350 349 348 349 351
346 347 348 348 343 342 340 341 347 350 352 352 354 336 336 341 350 351 351 350 349 349
350 348 348 348 349 347 346 340 343 347 348 352 353 335 333 337 350 349 349 352 351 350
352 351 350 348 348 350 349 346 342 347 351 349 350 331 330 334 347 350 348 348 352 352
353 352 351 351 351 351 351 350 348 345 346 346 353 332 328 332 350 345 345 347 346 335
351 353 353 353 353 352 352 351 350 349 348 348 350 351 325 324 353 351 347 345 344 347
Wind_Speed
10 6 6 6 7 8 8 7 7 8 7 7 7 6 5 3 3 4 3 3 2 2
10 7 9 8 6 7 9 6 8 9 8 7 7 6 6 4 5 4 4 4 4 2
11 7 7 6 7 7 8 6 8 8 9 7 7 6 6 5 4 5 4 3 3 3
13 8 7 7 7 7 7 8 8 10 10 10 8 7 6 6 6 6 5 3 4 6
14 13 8 9 8 7 7 7 8 10 11 10 9 7 8 7 6 7 6 6 5 6
16 16 16 12 7 7 7 8 7 8 11 12 11 9 8 8 7 7 7 7 7 7
17 17 17 16 10 8 9 8 8 9 10 10 10 10 9 8 7 7 7 7 6 7
16 16 15 17 16 12 8 11 9 9 9 10 10 9 10 9 8 8 7 7 7 7
15 16 16 16 16 15 14 11 8 10 12 10 9 12 14 11 8 8 8 9 7 7
18 18 18 16 16 16 16 16 13 12 12 13 13 15 16 16 9 9 9 9 8 6
17 18 17 17 17 16 15 16 15 15 14 13 11 14 16 16 12 9 11 11 11 10
17 18 18 19 18 16 14 14 15 14 14 15 15 16 17 13 10 12 11 10 11 12
14 18 19 20 18 16 15 15 13 15 15 15 15 15 18 15 10 11 10 9 10 15
16 19 20 18 15 15 15 14 15 15 14 15 14 15 19 20 14 11 10 10 9 10
Wind_Direction
204 200 203 182 197 194 192 184 184 189 184 182 180 180 172 170 186 178 184 207 207 177
208 203 205 198 182 193 194 188 184 185 188 186 184 184 176 181 193 189 192 212 223 211
208 207 212 197 197 190 207 191 172 186 192 189 188 187 183 184 208 196 221 206 213 266
204 212 196 201 205 199 195 196 188 191 192 193 192 190 187 195 197 213 225 231 223 246
196 204 209 210 206 198 198 192 196 187 190 190 195 189 193 201 196 198 214 232 221 249
198 200 210 215 209 205 194 198 191 180 187 189 196 197 200 198 201 203 209 217 215 231
197 204 209 211 202 209 213 192 197 194 194 195 196 200 201 198 204 210 215 216 213 219
197 201 206 209 210 204 209 217 198 198 197 195 199 206 205 205 207 205 222 224 222 221
199 199 203 205 209 207 207 213 198 201 203 201 204 201 195 195 207 215 214 228 228 230
197 205 204 199 202 210 212 213 216 212 205 205 207 197 197 197 205 212 221 226 230 229
200 205 203 202 199 205 208 211 214 218 216 214 212 198 200 201 215 216 222 223 225 226
207 205 201 205 202 202 201 209 212 215 217 216 221 199 202 195 211 224 227 223 225 226
205 212 204 204 201 202 205 208 210 216 215 211 217 199 200 195 212 221 228 228 230 223
234 208 210 205 199 200 206 208 211 215 216 216 210 215 197 197 211 220 224 230 230 231